Location: Hochstatterhof
(48.7256°N, 10.3487°E)
Time: 01:15:57
(UTC+00:00)

Cosmos 1484 Rocket - Pass Details

Date: 26 September 2023
Orbit: 489 x 533 km, 97.5° (Epoch: 01 December)

Event Time Altitude Azimuth Distance (km) Brightness Sun altitude
Rises 03:54:37 0° 10° (N) 2,590 6.6 -13.2°
Reaches altitude 10° 03:56:43 10° 7° (N) 1,698 5.6 -12.9°
Maximum altitude 04:00:20 64° 286° (WNW) 551 2.6 -12.3°
Drops below altitude 10° 04:03:54 10° 205° (SSW) 1,678 4.9 -11.7°
Enters shadow 04:05:15 - 203° (SSW) 2,250 5.6 -11.5°
